Location: ??????
(33.3472°N, 35.4764°E)
Time: 08:35:11
(UTC+00:00)

Lacrosse 5 rocket - Pass Details

Date: 21 August 2019
Orbit: 461 x 637 km, 57.0° (Epoch: 23 September)

Event Time Altitude Azimuth Distance (km) Brightness Sun altitude
Exits shadow 02:27:29 - 200° (SSW) 2,557 4.3 -8.2°
Reaches altitude 10° 02:29:40 10° 192° (SSW) 1,706 3.5 -7.8°
Maximum altitude 02:33:16 38° 123° (ESE) 801 2.5 -7.0°
Drops below altitude 10° 02:37:05 10° 54° (NE) 1,814 5.5 -6.3°
Sets 02:39:28 0° 47° (NE) 2,746 6.3 -5.8°
